Time,TemperatureF,DewpointF,PressureIn,WindDirection,WindDirectionDegrees,WindSpeedMPH,WindSpeedGustMPH,Humidity,HourlyPrecipIn,Conditions,Clouds,dailyrainin,SolarRadiationWatts/m^2,SoftwareType,DateUTC
2013-06-18 00:01:00,48.9,46.1,30.06,ESE,109,0.0,0.0,90,0.00,CLR,,0.00,0.0,WeatherDisplay:10.37,2013-06-18 05:01:00,
2013-06-18 00:06:00,48.8,46.0,30.06,ESE,109,0.0,0.0,90,0.00,CLR,,0.00,0.0,WeatherDisplay:10.37,2013-06-18 05:06:00,
2013-06-18 00:11:00,48.7,45.9,30.06,ESE,109,0.0,0.0,90,0.00,CLR,,0.00,0.0,WeatherDisplay:10.37,2013-06-18 05:11:00,
2013-06-18 00:16:00,48.6,45.8,30.06,ESE,109,0.0,0.0,90,0.00,CLR,,0.00,0.0,WeatherDisplay:10.37,2013-06-18 05:16:00,
2013-06-18 00:21:00,48.4,45.9,30.06,ESE,109,0.0,0.0,91,0.00,CLR,,0.00,0.0,WeatherDisplay:10.37,2013-06-18 05:21:00,
2013-06-18 00:26:00,48.3,45.8,30.06,ESE,109,0.0,0.0,91,0.00,CLR,,0.00,0.0,WeatherDisplay:10.37,2013-06-18 05:26:00,
2013-06-18 00:31:00,48.0,45.5,30.07,ESE,109,0.0,0.0,91,0.00,CLR,,0.00,0.0,WeatherDisplay:10.37,2013-06-18 05:31:00,
2013-06-18 00:36:00,47.8,45.3,30.07,ESE,109,0.0,0.0,91,0.00,CLR,,0.00,0.0,WeatherDisplay:10.37,2013-06-18 05:36:00,
2013-06-18 00:41:00,47.6,45.1,30.06,ESE,109,0.0,0.0,91,0.00,CLR,,0.00,0.0,WeatherDisplay:10.37,2013-06-18 05:41:00,
2013-06-18 00:46:00,47.4,44.9,30.07,ESE,109,0.0,0.0,91,0.00,CLR,,0.00,0.0,WeatherDisplay:10.37,2013-06-18 05:46:00,
2013-06-18 00:51:00,47.3,45.1,30.07,ESE,109,0.0,0.0,92,0.00,CLR,,0.00,0.0,WeatherDisplay:10.37,2013-06-18 05:51:00,
2013-06-18 00:56:00,47.3,45.1,30.07,ESE,109,0.0,0.0,92,0.00,CLR,,0.00,0.0,WeatherDisplay:10.37,2013-06-18 05:56:00,
2013-06-18 01:01:00,47.0,44.8,30.07,ESE,109,0.0,0.0,92,0.00,CLR,,0.00,0.0,WeatherDisplay:10.37,2013-06-18 06:01:00,
2013-06-18 01:06:00,46.7,44.5,30.07,ESE,109,1.1,0.0,92,0.00,CLR,,0.00,0.0,WeatherDisplay:10.37,2013-06-18 06:06:00,
2013-06-18 01:11:00,46.5,44.3,30.07,ESE,109,0.0,0.0,92,0.00,CLR,,0.00,0.0,WeatherDisplay:10.37,2013-06-18 06:11:00,
2013-06-18 01:16:00,46.4,44.2,30.07,ESE,109,0.0,0.0,92,0.00,CLR,,0.00,0.0,WeatherDisplay:10.37,2013-06-18 06:16:00,
2013-06-18 01:21:00,46.3,44.1,30.07,ESE,109,0.0,0.0,92,0.00,CLR,,0.00,0.0,WeatherDisplay:10.37,2013-06-18 06:21:00,
2013-06-18 01:26:00,46.1,44.2,30.07,ESE,109,0.0,0.0,93,0.00,CLR,,0.00,0.0,WeatherDisplay:10.37,2013-06-18 06:26:00,
2013-06-18 01:31:00,46.0,43.8,30.07,ESE,109,0.0,0.0,92,0.00,CLR,,0.00,0.0,WeatherDisplay:10.37,2013-06-18 06:31:00,
2013-06-18 01:36:00,45.9,44.0,30.07,ESE,109,0.0,0.0,93,0.00,CLR,,0.00,0.0,WeatherDisplay:10.37,2013-06-18 06:36:00,
2013-06-18 01:41:00,45.8,43.9,30.07,ESE,109,0.0,0.1,93,0.00,CLR,,0.00,0.0,WeatherDisplay:10.37,2013-06-18 06:41:00,
2013-06-18 01:46:00,45.6,43.7,30.07,ESE,109,0.0,0.0,93,0.00,CLR,,0.00,0.0,WeatherDisplay:10.37,2013-06-18 06:46:00,
2013-06-18 01:51:00,45.3,43.4,30.08,ESE,109,0.0,0.0,93,0.00,CLR,,0.00,0.0,WeatherDisplay:10.37,2013-06-18 06:51:00,
2013-06-18 01:56:00,45.2,43.3,30.08,ESE,109,0.0,0.0,93,0.00,CLR,,0.00,0.0,WeatherDisplay:10.37,2013-06-18 06:56:00,
2013-06-18 02:01:00,45.2,43.3,30.08,ESE,109,0.0,0.0,93,0.00,CLR,,0.00,0.0,WeatherDisplay:10.37,2013-06-18 07:01:00,
2013-06-18 02:06:00,45.1,43.2,30.08,ESE,109,0.0,0.0,93,0.00,CLR,,0.00,0.0,WeatherDisplay:10.37,2013-06-18 07:06:00,
2013-06-18 02:11:00,45.0,43.1,30.08,ESE,109,0.0,0.0,93,0.00,CLR,,0.00,0.0,WeatherDisplay:10.37,2013-06-18 07:11:00,
2013-06-18 02:16:00,44.9,43.0,30.08,ESE,109,0.0,0.0,93,0.00,CLR,,0.00,0.0,WeatherDisplay:10.37,2013-06-18 07:16:00,
2013-06-18 02:21:00,44.7,42.8,30.08,ESE,109,0.0,0.0,93,0.00,CLR,,0.00,0.0,WeatherDisplay:10.37,2013-06-18 07:21:00,
2013-06-18 02:26:00,44.6,42.7,30.08,ESE,109,0.0,0.0,93,0.00,CLR,,0.00,0.0,WeatherDisplay:10.37,2013-06-18 07:26:00,
2013-06-18 02:32:00,44.4,42.5,30.08,ESE,109,0.0,0.0,93,0.00,CLR,,0.00,0.0,WeatherDisplay:10.37,2013-06-18 07:32:00,
2013-06-18 02:37:00,44.3,42.4,30.08,ESE,109,0.0,0.0,93,0.00,CLR,,0.00,0.0,WeatherDisplay:10.37,2013-06-18 07:37:00,
2013-06-18 02:42:00,44.2,42.3,30.08,ESE,109,0.0,0.0,93,0.00,CLR,,0.00,0.0,WeatherDisplay:10.37,2013-06-18 07:42:00,
2013-06-18 02:47:00,43.9,42.0,30.08,ESE,109,0.0,0.0,93,0.00,CLR,,0.00,0.0,WeatherDisplay:10.37,2013-06-18 07:47:00,
2013-06-18 02:52:00,43.7,41.8,30.08,ESE,109,0.0,0.0,93,0.00,CLR,,0.00,0.0,WeatherDisplay:10.37,2013-06-18 07:52:00,
2013-06-18 02:57:00,43.5,41.6,30.08,ESE,109,0.0,0.0,93,0.00,CLR,,0.00,0.0,WeatherDisplay:10.37,2013-06-18 07:57:00,
2013-06-18 03:02:00,43.4,41.8,30.09,ESE,109,0.0,0.0,94,0.00,CLR,,0.00,0.0,WeatherDisplay:10.37,2013-06-18 08:02:00,
2013-06-18 03:07:00,43.3,41.4,30.09,ESE,109,0.0,0.0,93,0.00,CLR,,0.00,0.0,WeatherDisplay:10.37,2013-06-18 08:07:00,
2013-06-18 03:12:00,43.1,41.2,30.09,ESE,109,0.0,0.0,93,0.00,CLR,,0.00,0.0,WeatherDisplay:10.37,2013-06-18 08:12:00,
2013-06-18 03:17:00,43.0,41.4,30.09,ESE,109,0.0,0.0,94,0.00,CLR,,0.00,0.0,WeatherDisplay:10.37,2013-06-18 08:17:00,
2013-06-18 03:22:00,42.8,41.2,30.09,ESE,109,0.0,0.0,94,0.00,CLR,,0.00,0.0,WeatherDisplay:10.37,2013-06-18 08:22:00,
2013-06-18 03:27:00,42.7,41.1,30.09,ESE,109,0.0,0.0,94,0.00,CLR,,0.00,0.0,WeatherDisplay:10.37,2013-06-18 08:27:00,
2013-06-18 03:42:00,42.5,40.9,30.09,ESE,109,0.0,0.0,94,0.00,CLR,,0.00,0.0,WeatherDisplay:10.37,2013-06-18 08:42:00,
2013-06-18 03:47:00,42.5,40.9,30.09,ESE,109,0.0,0.0,94,0.00,CLR,,0.00,0.0,WeatherDisplay:10.37,2013-06-18 08:47:00,
2013-06-18 03:52:00,42.5,40.9,30.09,ESE,109,0.0,0.0,94,0.00,CLR,,0.00,0.0,WeatherDisplay:10.37,2013-06-18 08:52:00,
2013-06-18 03:57:00,42.4,40.8,30.09,ESE,109,0.0,0.0,94,0.00,CLR,,0.00,0.0,WeatherDisplay:10.37,2013-06-18 08:57:00,
2013-06-18 04:02:00,42.4,41.1,30.09,ESE,109,0.0,0.0,95,0.00,CLR,,0.00,0.0,WeatherDisplay:10.37,2013-06-18 09:02:00,
2013-06-18 04:07:00,42.4,41.1,30.09,ESE,109,0.0,0.0,95,0.00,CLR,,0.00,0.0,WeatherDisplay:10.37,2013-06-18 09:07:00,
2013-06-18 04:12:00,42.2,40.6,30.09,ESE,109,0.0,0.0,94,0.00,CLR,,0.00,0.0,WeatherDisplay:10.37,2013-06-18 09:12:00,
2013-06-18 04:17:00,42.2,40.6,30.09,ESE,109,0.0,0.0,94,0.00,CLR,,0.00,0.0,WeatherDisplay:10.37,2013-06-18 09:17:00,
2013-06-18 04:22:00,42.1,40.8,30.09,ESE,109,0.0,0.0,95,0.00,CLR,,0.00,0.0,WeatherDisplay:10.37,2013-06-18 09:22:00,
2013-06-18 04:27:00,42.0,40.7,30.10,ESE,109,0.0,0.0,95,0.00,CLR,,0.00,0.0,WeatherDisplay:10.37,2013-06-18 09:27:00,
2013-06-18 04:32:00,42.2,40.6,30.09,ESE,109,0.0,0.0,94,0.00,CLR,,0.00,0.0,WeatherDisplay:10.37,2013-06-18 09:32:00,
2013-06-18 04:37:00,42.2,40.6,30.09,ESE,109,0.0,0.0,94,0.00,CLR,,0.00,0.0,WeatherDisplay:10.37,2013-06-18 09:37:00,
2013-06-18 04:42:00,41.7,40.1,30.10,ESE,109,0.0,0.0,94,0.00,CLR,,0.00,0.0,WeatherDisplay:10.37,2013-06-18 09:42:00,
2013-06-18 04:47:00,42.2,40.6,30.09,ESE,109,0.0,0.0,94,0.00,CLR,,0.00,0.0,WeatherDisplay:10.37,2013-06-18 09:47:00,
2013-06-18 04:52:00,42.2,40.6,30.09,ESE,109,0.0,0.0,94,0.00,CLR,,0.00,0.0,WeatherDisplay:10.37,2013-06-18 09:52:00,
2013-06-18 04:57:00,42.2,40.6,30.09,ESE,109,0.0,0.0,94,0.00,CLR,,0.00,0.0,WeatherDisplay:10.37,2013-06-18 09:57:00,
2013-06-18 05:02:00,41.2,39.6,30.11,ESE,109,0.0,0.0,94,0.00,CLR,,0.00,0.0,WeatherDisplay:10.37,2013-06-18 10:02:00,
2013-06-18 05:07:00,42.2,40.6,30.09,ESE,109,0.0,0.0,94,0.00,CLR,,0.00,0.0,WeatherDisplay:10.37,2013-06-18 10:07:00,
2013-06-18 05:12:00,40.8,39.2,30.10,ESE,109,0.0,0.0,94,0.00,CLR,,0.00,0.0,WeatherDisplay:10.37,2013-06-18 10:12:00,
2013-06-18 05:17:00,40.7,39.1,30.11,ESE,109,0.0,0.0,94,0.00,CLR,,0.00,0.0,WeatherDisplay:10.37,2013-06-18 10:17:00,
2013-06-18 05:22:00,42.2,40.6,30.09,ESE,109,0.0,0.0,94,0.00,CLR,,0.00,0.0,WeatherDisplay:10.37,2013-06-18 10:22:00,
2013-06-18 05:27:00,42.2,40.6,30.09,ESE,109,0.0,0.0,94,0.00,CLR,,0.00,0.0,WeatherDisplay:10.37,2013-06-18 10:27:00,
2013-06-18 05:32:00,42.2,40.6,30.09,ESE,109,0.0,0.0,94,0.00,CLR,,0.00,0.0,WeatherDisplay:10.37,2013-06-18 10:32:00,
2013-06-18 05:37:00,42.2,40.6,30.09,ESE,109,0.0,0.0,94,0.00,CLR,,0.00,0.0,WeatherDisplay:10.37,2013-06-18 10:37:00,
2013-06-18 05:42:00,40.4,39.1,30.12,ESE,109,0.0,0.0,95,0.00,CLR,,0.00,9.0,WeatherDisplay:10.37,2013-06-18 10:42:00,
2013-06-18 05:47:00,42.2,40.6,30.09,ESE,109,0.0,0.0,94,0.00,CLR,,0.00,0.0,WeatherDisplay:10.37,2013-06-18 10:47:00,
2013-06-18 05:52:00,42.2,40.6,30.09,ESE,109,0.0,0.0,94,0.00,CLR,,0.00,0.0,WeatherDisplay:10.37,2013-06-18 10:52:00,
2013-06-18 05:57:00,42.2,40.6,30.09,ESE,109,0.0,0.0,94,0.00,CLR,,0.00,0.0,WeatherDisplay:10.37,2013-06-18 10:57:00,
2013-06-18 06:02:00,42.2,40.6,30.09,ESE,109,0.0,0.0,94,0.00,CLR,,0.00,0.0,WeatherDisplay:10.37,2013-06-18 11:02:00,
2013-06-18 06:07:00,40.5,39.2,30.12,ESE,109,0.0,0.0,95,0.00,CLR,,0.00,14.0,WeatherDisplay:10.37,2013-06-18 11:07:00,
2013-06-18 06:12:00,40.6,39.3,30.13,ESE,109,0.0,0.0,95,0.00,CLR,,0.00,14.0,WeatherDisplay:10.37,2013-06-18 11:12:00,
2013-06-18 06:17:00,40.7,39.6,30.14,ESE,109,0.0,0.0,96,0.00,CLR,,0.00,16.0,WeatherDisplay:10.37,2013-06-18 11:17:00,
2013-06-18 06:22:00,40.9,39.8,30.13,ESE,109,0.0,0.0,96,0.00,CLR,,0.00,16.0,WeatherDisplay:10.37,2013-06-18 11:22:00,
2013-06-18 06:27:00,40.5,39.2,30.12,ESE,109,0.0,0.0,95,0.00,CLR,,0.00,12.0,WeatherDisplay:10.37,2013-06-18 11:27:00,
2013-06-18 06:32:00,40.5,39.2,30.12,ESE,109,0.0,0.0,95,0.00,CLR,,0.00,12.0,WeatherDisplay:10.37,2013-06-18 11:32:00,
2013-06-18 06:37:00,41.7,40.6,30.14,ESE,109,0.0,0.0,96,0.00,CLR,,0.00,18.0,WeatherDisplay:10.37,2013-06-18 11:37:00,
2013-06-18 06:42:00,41.7,40.6,30.14,ESE,109,0.0,0.0,96,0.00,CLR,,0.00,18.0,WeatherDisplay:10.37,2013-06-18 11:42:00,
2013-06-18 06:47:00,41.7,40.6,30.14,ESE,109,0.0,0.0,96,0.00,CLR,,0.00,18.0,WeatherDisplay:10.37,2013-06-18 11:47:00,
2013-06-18 06:52:00,41.7,40.6,30.14,ESE,109,0.0,0.0,96,0.00,CLR,,0.00,18.0,WeatherDisplay:10.37,2013-06-18 11:52:00,
2013-06-18 06:57:00,41.7,40.6,30.14,ESE,109,0.0,0.0,96,0.00,CLR,,0.00,18.0,WeatherDisplay:10.37,2013-06-18 11:57:00,
2013-06-18 07:02:00,42.9,42.1,30.14,ESE,109,0.0,0.0,97,0.00,CLR,,0.00,21.0,WeatherDisplay:10.37,2013-06-18 12:02:00,
2013-06-18 07:07:00,41.7,40.6,30.14,ESE,109,0.0,0.0,96,0.00,CLR,,0.00,18.0,WeatherDisplay:10.37,2013-06-18 12:07:00,
2013-06-18 07:12:00,41.7,40.6,30.14,ESE,109,0.0,0.0,96,0.00,CLR,,0.00,18.0,WeatherDisplay:10.37,2013-06-18 12:12:00,
2013-06-18 07:17:00,41.7,40.6,30.14,ESE,109,0.0,0.0,96,0.00,CLR,,0.00,18.0,WeatherDisplay:10.37,2013-06-18 12:17:00,
2013-06-18 07:23:00,44.2,43.4,30.14,ESE,107,0.0,0.0,97,0.00,CLR,,0.00,23.0,WeatherDisplay:10.37,2013-06-18 12:23:00,
2013-06-18 07:28:00,44.0,43.2,30.14,ESE,107,0.0,0.0,97,0.00,CLR,,0.00,23.0,WeatherDisplay:10.37,2013-06-18 12:28:00,
2013-06-18 07:33:00,44.9,44.1,30.14,ESE,107,0.0,0.0,97,0.00,CLR,,0.00,51.0,WeatherDisplay:10.37,2013-06-18 12:33:00,
2013-06-18 07:38:00,44.0,43.2,30.14,ESE,107,0.0,0.0,97,0.00,CLR,,0.00,23.0,WeatherDisplay:10.37,2013-06-18 12:38:00,
2013-06-18 07:43:00,44.0,43.2,30.14,ESE,107,0.0,0.0,97,0.00,CLR,,0.00,23.0,WeatherDisplay:10.37,2013-06-18 12:43:00,
2013-06-18 07:48:00,46.4,45.6,30.15,ESE,107,0.0,0.0,97,0.00,CLR,,0.00,185.0,WeatherDisplay:10.37,2013-06-18 12:48:00,
2013-06-18 07:53:00,46.9,46.1,30.15,ESE,107,0.0,0.0,97,0.00,CLR,,0.00,39.0,WeatherDisplay:10.37,2013-06-18 12:53:00,
2013-06-18 07:58:00,47.5,46.7,30.15,ESE,107,0.0,0.0,97,0.00,CLR,,0.00,60.0,WeatherDisplay:10.37,2013-06-18 12:58:00,
2013-06-18 08:03:00,48.0,47.2,30.15,ESE,107,0.0,0.0,97,0.00,CLR,,0.00,58.0,WeatherDisplay:10.37,2013-06-18 13:03:00,
2013-06-18 08:08:00,48.0,47.2,30.15,ESE,107,0.0,0.0,97,0.00,CLR,,0.00,58.0,WeatherDisplay:10.37,2013-06-18 13:08:00,
2013-06-18 08:13:00,49.3,47.9,30.15,ESE,109,0.0,0.0,95,0.00,CLR,,0.00,30.0,WeatherDisplay:10.37,2013-06-18 13:13:00,
2013-06-18 08:18:00,48.0,47.2,30.15,ESE,107,0.0,0.0,97,0.00,CLR,,0.00,58.0,WeatherDisplay:10.37,2013-06-18 13:18:00,
2013-06-18 08:23:00,48.0,47.2,30.15,ESE,107,0.0,0.0,97,0.00,CLR,,0.00,58.0,WeatherDisplay:10.37,2013-06-18 13:23:00,
2013-06-18 08:28:00,51.0,47.9,30.15,East,82,0.0,0.0,89,0.00,CLR,,0.00,39.0,WeatherDisplay:10.37,2013-06-18 13:28:00,
2013-06-18 08:33:00,51.5,47.8,30.15,East,82,0.0,0.0,87,0.00,CLR,,0.00,63.0,WeatherDisplay:10.37,2013-06-18 13:33:00,
2013-06-18 08:38:00,52.1,47.1,30.15,ESE,103,1.1,0.0,83,0.00,CLR,,0.00,42.0,WeatherDisplay:10.37,2013-06-18 13:38:00,
2013-06-18 08:43:00,50.9,47.8,30.15,East,82,0.0,0.0,89,0.00,CLR,,0.00,39.0,WeatherDisplay:10.37,2013-06-18 13:43:00,
2013-06-18 08:48:00,50.9,47.8,30.15,East,82,0.0,0.0,89,0.00,CLR,,0.00,39.0,WeatherDisplay:10.37,2013-06-18 13:48:00,
2013-06-18 08:53:00,50.9,47.8,30.15,East,82,0.0,0.0,89,0.00,CLR,,0.00,39.0,WeatherDisplay:10.37,2013-06-18 13:53:00,
2013-06-18 08:58:00,55.1,49.7,30.15,East,90,2.3,2.3,82,0.00,CLR,,0.00,88.0,WeatherDisplay:10.37,2013-06-18 13:58:00,
2013-06-18 09:03:00,55.8,46.2,30.15,ESE,113,3.5,3.5,70,0.00,CLR,,0.00,100.0,WeatherDisplay:10.37,2013-06-18 14:03:00,
2013-06-18 09:08:00,50.9,47.8,30.15,East,82,0.0,0.0,89,0.00,CLR,,0.00,39.0,WeatherDisplay:10.37,2013-06-18 14:08:00,
2013-06-18 09:13:00,50.9,47.8,30.15,East,82,0.0,0.0,89,0.00,CLR,,0.00,39.0,WeatherDisplay:10.37,2013-06-18 14:13:00,
2013-06-18 09:18:00,50.9,47.8,30.15,East,82,0.0,0.0,89,0.00,CLR,,0.00,39.0,WeatherDisplay:10.37,2013-06-18 14:18:00,
2013-06-18 09:23:00,57.7,45.6,30.15,SE,129,3.5,3.5,64,0.00,CLR,,0.00,172.0,WeatherDisplay:10.37,2013-06-18 14:23:00,
2013-06-18 09:28:00,58.0,45.5,30.15,ESE,123,1.1,1.1,63,0.00,CLR,,0.00,53.0,WeatherDisplay:10.37,2013-06-18 14:28:00,
2013-06-18 09:33:00,58.6,46.9,30.15,ESE,123,2.3,2.3,65,0.00,CLR,,0.00,53.0,WeatherDisplay:10.37,2013-06-18 14:33:00,
2013-06-18 09:38:00,59.0,46.4,30.15,ESE,123,2.3,2.3,63,0.00,CLR,,0.00,58.0,WeatherDisplay:10.37,2013-06-18 14:38:00,
2013-06-18 09:43:00,59.3,46.3,30.14,East,94,2.3,2.3,62,0.00,CLR,,0.00,53.0,WeatherDisplay:10.37,2013-06-18 14:43:00,
2013-06-18 09:48:00,59.6,45.2,30.14,SE,136,3.5,3.5,59,0.00,CLR,,0.00,127.0,WeatherDisplay:10.37,2013-06-18 14:48:00,
2013-06-18 09:53:00,59.9,44.2,30.14,SE,136,1.1,1.1,56,0.00,CLR,,0.00,51.0,WeatherDisplay:10.37,2013-06-18 14:53:00,
2013-06-18 09:58:00,60.0,44.3,30.14,SE,128,0.0,0.3,56,0.00,CLR,,0.00,53.0,WeatherDisplay:10.37,2013-06-18 14:58:00,
2013-06-18 10:03:00,60.4,46.9,30.14,ENE,60,3.5,3.5,61,0.00,CLR,,0.00,60.0,WeatherDisplay:10.37,2013-06-18 15:03:00,
2013-06-18 10:08:00,60.4,45.1,30.15,East,87,2.3,2.3,57,0.00,CLR,,0.00,93.0,WeatherDisplay:10.37,2013-06-18 15:08:00,
2013-06-18 10:13:00,60.7,43.5,30.14,ENE,75,2.3,2.3,53,0.00,CLR,,0.00,54.0,WeatherDisplay:10.37,2013-06-18 15:13:00,
2013-06-18 10:18:00,60.8,45.0,30.14,ENE,75,0.0,0.1,56,0.00,CLR,,0.00,93.0,WeatherDisplay:10.37,2013-06-18 15:18:00,
2013-06-18 10:23:00,61.2,43.4,30.14,ESE,123,3.5,3.5,52,0.00,CLR,,0.00,269.0,WeatherDisplay:10.37,2013-06-18 15:23:00,
2013-06-18 10:28:00,60.8,45.0,30.14,ENE,75,0.0,0.1,56,0.00,CLR,,0.00,93.0,WeatherDisplay:10.37,2013-06-18 15:28:00,
2013-06-18 10:33:00,61.9,45.1,30.14,NE,43,3.0,3.0,54,0.00,CLR,,0.00,60.0,WeatherDisplay:10.37,2013-06-18 15:33:00,
2013-06-18 10:38:00,60.8,45.0,30.14,ENE,75,0.0,0.1,56,0.00,CLR,,0.00,93.0,WeatherDisplay:10.37,2013-06-18 15:38:00,
2013-06-18 10:43:00,60.8,45.0,30.14,ENE,75,0.0,0.1,56,0.00,CLR,,0.00,93.0,WeatherDisplay:10.37,2013-06-18 15:43:00,
2013-06-18 10:48:00,60.8,45.0,30.14,ENE,75,0.0,0.1,56,0.00,CLR,,0.00,93.0,WeatherDisplay:10.37,2013-06-18 15:48:00,
2013-06-18 10:53:00,63.0,46.1,30.14,ENE,69,2.3,2.3,54,0.00,CLR,,0.00,158.0,WeatherDisplay:10.37,2013-06-18 15:53:00,
2013-06-18 10:58:00,62.8,43.3,30.14,ENE,71,1.1,1.1,49,0.00,CLR,,0.00,77.0,WeatherDisplay:10.37,2013-06-18 15:58:00,
2013-06-18 11:03:00,62.8,43.3,30.14,ENE,71,1.1,1.1,49,0.00,CLR,,0.00,77.0,WeatherDisplay:10.37,2013-06-18 16:03:00,
2013-06-18 11:08:00,64.5,44.9,30.14,ESE,110,2.3,2.3,49,0.00,CLR,,0.00,879.0,WeatherDisplay:10.37,2013-06-18 16:08:00,
2013-06-18 11:13:00,65.1,43.2,30.14,NE,42,3.5,3.5,45,0.00,CLR,,0.00,896.0,WeatherDisplay:10.37,2013-06-18 16:13:00,
2013-06-18 11:18:00,65.6,43.1,30.13,SE,136,2.3,2.3,44,0.00,CLR,,0.00,902.0,WeatherDisplay:10.37,2013-06-18 16:18:00,
2013-06-18 11:23:00,66.0,44.6,30.13,SE,133,2.3,2.3,46,0.00,CLR,,0.00,914.0,WeatherDisplay:10.37,2013-06-18 16:23:00,
2013-06-18 11:28:00,66.4,44.4,30.13,East,90,6.0,6.0,45,0.00,CLR,,0.00,919.0,WeatherDisplay:10.37,2013-06-18 16:28:00,
2013-06-18 11:33:00,66.7,44.1,30.13,ESE,108,2.3,2.3,44,0.00,CLR,,0.00,928.0,WeatherDisplay:10.37,2013-06-18 16:33:00,
2013-06-18 11:38:00,66.9,44.3,30.13,SE,138,2.0,2.0,44,0.00,CLR,,0.00,937.0,WeatherDisplay:10.37,2013-06-18 16:38:00,
2013-06-18 11:43:00,65.0,43.1,30.13,ESE,102,2.3,2.3,45,0.00,CLR,,0.00,889.0,WeatherDisplay:10.37,2013-06-18 16:43:00,
2013-06-18 11:48:00,67.9,47.5,30.13,ESE,117,1.1,1.1,48,0.00,CLR,,0.00,954.0,WeatherDisplay:10.37,2013-06-18 16:48:00,
2013-06-18 11:53:00,65.0,43.1,30.13,ESE,102,2.3,2.3,45,0.00,CLR,,0.00,889.0,WeatherDisplay:10.37,2013-06-18 16:53:00,
2013-06-18 11:58:00,65.0,43.1,30.13,ESE,102,2.3,2.3,45,0.00,CLR,,0.00,889.0,WeatherDisplay:10.37,2013-06-18 16:58:00,
2013-06-18 12:03:00,68.6,43.9,30.12,ENE,74,4.6,4.6,41,0.00,CLR,,0.00,972.0,WeatherDisplay:10.37,2013-06-18 17:03:00,
2013-06-18 12:08:00,65.0,43.1,30.13,ESE,102,2.3,2.3,45,0.00,CLR,,0.00,889.0,WeatherDisplay:10.37,2013-06-18 17:08:00,
2013-06-18 12:13:00,65.0,43.1,30.13,ESE,102,2.3,2.3,45,0.00,CLR,,0.00,889.0,WeatherDisplay:10.37,2013-06-18 17:13:00,
2013-06-18 12:18:00,69.0,43.0,30.12,SSE,148,4.0,4.0,39,0.00,CLR,,0.00,990.0,WeatherDisplay:10.37,2013-06-18 17:18:00,
2013-06-18 12:23:00,69.1,45.7,30.12,ESE,107,2.0,2.0,43,0.00,CLR,,0.00,993.0,WeatherDisplay:10.37,2013-06-18 17:23:00,
2013-06-18 12:28:00,65.0,43.1,30.13,ESE,102,2.3,2.3,45,0.00,CLR,,0.00,889.0,WeatherDisplay:10.37,2013-06-18 17:28:00,
2013-06-18 12:33:00,65.0,43.1,30.13,ESE,102,2.3,2.3,45,0.00,CLR,,0.00,889.0,WeatherDisplay:10.37,2013-06-18 17:33:00,
2013-06-18 12:38:00,70.3,45.5,30.12,SSE,155,3.5,3.5,41,0.00,CLR,,0.00,1005.0,WeatherDisplay:10.37,2013-06-18 17:38:00,
2013-06-18 12:43:00,65.0,43.1,30.13,ESE,102,2.3,2.3,45,0.00,CLR,,0.00,889.0,WeatherDisplay:10.37,2013-06-18 17:43:00,
2013-06-18 12:48:00,65.0,43.1,30.13,ESE,102,2.3,2.3,45,0.00,CLR,,0.00,889.0,WeatherDisplay:10.37,2013-06-18 17:48:00,
2013-06-18 12:53:00,65.0,43.1,30.13,ESE,102,2.3,2.3,45,0.00,CLR,,0.00,889.0,WeatherDisplay:10.37,2013-06-18 17:53:00,
2013-06-18 12:58:00,70.4,46.8,30.11,ENE,78,2.3,2.3,43,0.00,CLR,,0.00,1016.0,WeatherDisplay:10.37,2013-06-18 17:58:00,
2013-06-18 13:03:00,70.5,43.7,30.11,East,87,1.1,1.1,38,0.00,CLR,,0.00,1014.0,WeatherDisplay:10.37,2013-06-18 18:03:00,
2013-06-18 13:08:00,70.6,45.7,30.11,SE,139,4.6,4.6,41,0.00,CLR,,0.00,1018.0,WeatherDisplay:10.37,2013-06-18 18:08:00,
2013-06-18 13:13:00,70.4,46.8,30.11,ENE,78,0.0,0.3,43,0.00,CLR,,0.00,1016.0,WeatherDisplay:10.37,2013-06-18 18:13:00,
2013-06-18 13:18:00,71.1,43.5,30.11,ESE,118,0.0,1.3,37,0.00,CLR,,0.00,1016.0,WeatherDisplay:10.37,2013-06-18 18:18:00,
2013-06-18 13:23:00,70.9,46.7,30.11,NE,53,1.1,1.1,42,0.00,CLR,,0.00,1011.0,WeatherDisplay:10.37,2013-06-18 18:23:00,
2013-06-18 13:29:00,71.1,43.5,30.11,ESE,118,0.0,1.3,37,0.00,CLR,,0.00,1016.0,WeatherDisplay:10.37,2013-06-18 18:29:00,
2013-06-18 13:34:00,71.6,46.6,30.11,East,88,2.3,2.3,41,0.00,CLR,,0.00,1013.0,WeatherDisplay:10.37,2013-06-18 18:34:00,
2013-06-18 13:39:00,71.1,43.5,30.11,ESE,118,0.0,1.3,37,0.00,CLR,,0.00,1016.0,WeatherDisplay:10.37,2013-06-18 18:39:00,
2013-06-18 13:44:00,71.1,43.5,30.11,ESE,118,0.0,1.3,37,0.00,CLR,,0.00,1016.0,WeatherDisplay:10.37,2013-06-18 18:44:00,
2013-06-18 13:49:00,72.4,45.4,30.11,ENE,59,3.5,3.5,38,0.00,CLR,,0.00,1004.0,WeatherDisplay:10.37,2013-06-18 18:49:00,
2013-06-18 13:54:00,72.4,46.0,30.11,SSE,165,3.5,3.5,39,0.00,CLR,,0.00,1000.0,WeatherDisplay:10.37,2013-06-18 18:54:00,
2013-06-18 13:59:00,71.1,43.5,30.11,ESE,118,0.0,1.3,37,0.00,CLR,,0.00,1016.0,WeatherDisplay:10.37,2013-06-18 18:59:00,
2013-06-18 14:04:00,71.1,43.5,30.11,ESE,118,0.0,1.3,37,0.00,CLR,,0.00,1016.0,WeatherDisplay:10.37,2013-06-18 19:04:00,
2013-06-18 14:09:00,71.1,43.5,30.11,ESE,118,0.0,1.3,37,0.00,CLR,,0.00,1016.0,WeatherDisplay:10.37,2013-06-18 19:09:00,
2013-06-18 14:14:00,71.1,43.5,30.11,ESE,118,0.0,1.3,37,0.00,CLR,,0.00,1016.0,WeatherDisplay:10.37,2013-06-18 19:14:00,
2013-06-18 14:19:00,72.7,42.7,30.10,WSW,254,3.5,3.5,34,0.00,CLR,,0.00,974.0,WeatherDisplay:10.37,2013-06-18 19:19:00,
2013-06-18 14:24:00,71.1,43.5,30.11,ESE,118,0.0,1.3,37,0.00,CLR,,0.00,1016.0,WeatherDisplay:10.37,2013-06-18 19:24:00,
2013-06-18 14:29:00,73.2,43.9,30.10,SSW,207,2.3,2.3,35,0.00,CLR,,0.00,960.0,WeatherDisplay:10.37,2013-06-18 19:29:00,
2013-06-18 14:34:00,71.1,43.5,30.11,ESE,118,0.0,1.3,37,0.00,CLR,,0.00,1016.0,WeatherDisplay:10.37,2013-06-18 19:34:00,
2013-06-18 14:39:00,71.1,43.5,30.11,ESE,118,0.0,1.3,37,0.00,CLR,,0.00,1016.0,WeatherDisplay:10.37,2013-06-18 19:39:00,
2013-06-18 14:44:00,74.7,46.0,30.10,East,92,3.5,3.5,36,0.00,CLR,,0.00,942.0,WeatherDisplay:10.37,2013-06-18 19:44:00,
2013-06-18 14:49:00,74.4,42.6,30.10,South,171,3.5,3.5,32,0.00,CLR,,0.00,939.0,WeatherDisplay:10.37,2013-06-18 19:49:00,
2013-06-18 14:54:00,74.0,48.1,30.10,North,355,1.1,1.1,40,0.00,CLR,,0.00,951.0,WeatherDisplay:10.37,2013-06-18 19:54:00,
2013-06-18 14:59:00,74.0,48.1,30.10,North,355,1.1,1.1,40,0.00,CLR,,0.00,951.0,WeatherDisplay:10.37,2013-06-18 19:59:00,
2013-06-18 15:04:00,74.0,45.3,30.10,SE,146,2.3,2.3,36,0.00,CLR,,0.00,914.0,WeatherDisplay:10.37,2013-06-18 20:04:00,
2013-06-18 15:09:00,73.7,46.5,30.10,West,279,3.5,3.5,38,0.00,CLR,,0.00,905.0,WeatherDisplay:10.37,2013-06-18 20:09:00,
2013-06-18 15:14:00,73.1,43.1,30.09,West,277,1.1,0.0,34,0.00,CLR,,0.00,895.0,WeatherDisplay:10.37,2013-06-18 20:14:00,
2013-06-18 15:19:00,73.9,44.5,30.10,SE,142,0.0,1.2,35,0.00,CLR,,0.00,909.0,WeatherDisplay:10.37,2013-06-18 20:19:00,
2013-06-18 15:24:00,73.4,42.5,30.09,ESE,118,1.1,1.1,33,0.00,CLR,,0.00,886.0,WeatherDisplay:10.37,2013-06-18 20:24:00,
2013-06-18 15:29:00,73.6,45.7,30.09,ESE,118,1.1,1.1,37,0.00,CLR,,0.00,868.0,WeatherDisplay:10.37,2013-06-18 20:29:00,
2013-06-18 15:34:00,73.6,45.0,30.09,SE,128,0.0,0.0,36,0.00,CLR,,0.00,858.0,WeatherDisplay:10.37,2013-06-18 20:34:00,
2013-06-18 15:39:00,74.1,42.3,30.09,SE,128,1.1,1.1,32,0.00,CLR,,0.00,847.0,WeatherDisplay:10.37,2013-06-18 20:39:00,
2013-06-18 15:44:00,74.5,41.9,30.09,West,275,3.5,3.5,31,0.00,CLR,,0.00,837.0,WeatherDisplay:10.37,2013-06-18 20:44:00,
2013-06-18 15:49:00,74.6,42.8,30.09,West,266,3.5,3.5,32,0.00,CLR,,0.00,824.0,WeatherDisplay:10.37,2013-06-18 20:49:00,
2013-06-18 15:54:00,73.4,42.5,30.09,ESE,118,1.1,1.1,33,0.00,CLR,,0.00,886.0,WeatherDisplay:10.37,2013-06-18 20:54:00,
2013-06-18 15:59:00,74.4,42.6,30.09,SSE,157,2.0,2.0,32,0.00,CLR,,0.00,803.0,WeatherDisplay:10.37,2013-06-18 20:59:00,
2013-06-18 16:04:00,73.4,42.5,30.09,ESE,118,1.1,1.1,33,0.00,CLR,,0.00,886.0,WeatherDisplay:10.37,2013-06-18 21:04:00,
2013-06-18 16:09:00,73.8,43.7,30.08,WSW,240,1.0,1.0,34,0.00,CLR,,0.00,779.0,WeatherDisplay:10.37,2013-06-18 21:09:00,
2013-06-18 16:14:00,73.9,40.5,30.08,WSW,243,0.0,1.4,30,0.00,CLR,,0.00,786.0,WeatherDisplay:10.37,2013-06-18 21:14:00,
2013-06-18 16:19:00,73.9,40.5,30.08,WSW,243,0.0,1.4,30,0.00,CLR,,0.00,786.0,WeatherDisplay:10.37,2013-06-18 21:19:00,
2013-06-18 16:24:00,73.9,40.5,30.08,WSW,243,0.0,1.4,30,0.00,CLR,,0.00,786.0,WeatherDisplay:10.37,2013-06-18 21:24:00,
2013-06-18 16:29:00,73.9,40.5,30.08,WSW,243,0.0,1.4,30,0.00,CLR,,0.00,786.0,WeatherDisplay:10.37,2013-06-18 21:29:00,
2013-06-18 16:34:00,73.7,45.8,30.07,SE,124,1.1,1.1,37,0.00,CLR,,0.00,712.0,WeatherDisplay:10.37,2013-06-18 21:34:00,
2013-06-18 16:39:00,73.9,46.0,30.07,WSW,250,3.5,3.5,37,0.00,CLR,,0.00,696.0,WeatherDisplay:10.37,2013-06-18 21:39:00,
2013-06-18 16:44:00,73.7,45.8,30.07,SE,124,2.3,2.3,37,0.00,CLR,,0.00,712.0,WeatherDisplay:10.37,2013-06-18 21:44:00,
2013-06-18 16:49:00,74.3,43.3,30.07,South,178,3.0,3.0,33,0.00,CLR,,0.00,670.0,WeatherDisplay:10.37,2013-06-18 21:49:00,
2013-06-18 16:54:00,73.7,45.8,30.07,SE,124,2.3,2.3,37,0.00,CLR,,0.00,712.0,WeatherDisplay:10.37,2013-06-18 21:54:00,
2013-06-18 16:59:00,74.9,45.4,30.07,South,178,1.1,1.1,35,0.00,CLR,,0.00,645.0,WeatherDisplay:10.37,2013-06-18 21:59:00,
2013-06-18 17:04:00,75.3,46.5,30.06,SSE,157,4.6,4.6,36,0.00,CLR,,0.00,626.0,WeatherDisplay:10.37,2013-06-18 22:04:00,
2013-06-18 17:09:00,75.1,44.8,30.06,SSE,165,2.3,2.3,34,0.00,CLR,,0.00,612.0,WeatherDisplay:10.37,2013-06-18 22:09:00,
2013-06-18 17:14:00,75.2,43.3,30.06,SSE,165,2.3,2.6,32,0.00,CLR,,0.00,619.0,WeatherDisplay:10.37,2013-06-18 22:14:00,
2013-06-18 17:19:00,75.2,43.3,30.06,SSE,165,2.3,2.6,32,0.00,CLR,,0.00,619.0,WeatherDisplay:10.37,2013-06-18 22:19:00,
2013-06-18 17:24:00,75.2,43.3,30.06,SSE,165,2.3,2.6,32,0.00,CLR,,0.00,619.0,WeatherDisplay:10.37,2013-06-18 22:24:00,
2013-06-18 17:29:00,75.2,43.3,30.06,SSE,165,2.3,2.6,32,0.00,CLR,,0.00,619.0,WeatherDisplay:10.37,2013-06-18 22:29:00,
2013-06-18 17:34:00,75.2,43.3,30.06,SSE,165,2.3,2.6,32,0.00,CLR,,0.00,619.0,WeatherDisplay:10.37,2013-06-18 22:34:00,
2013-06-18 17:39:00,74.0,44.6,30.06,East,89,2.3,2.3,35,0.00,CLR,,0.00,313.0,WeatherDisplay:10.37,2013-06-18 22:39:00,
2013-06-18 17:44:00,73.4,44.8,30.06,South,178,2.0,2.0,36,0.00,CLR,,0.00,81.0,WeatherDisplay:10.37,2013-06-18 22:44:00,
2013-06-18 17:49:00,72.6,40.2,30.06,South,172,2.3,2.3,31,0.00,CLR,,0.00,46.0,WeatherDisplay:10.37,2013-06-18 22:49:00,
2013-06-18 17:54:00,72.4,44.6,30.06,South,172,2.3,2.3,37,0.00,CLR,,0.00,44.0,WeatherDisplay:10.37,2013-06-18 22:54:00,
2013-06-18 17:59:00,75.2,43.3,30.06,SSE,165,2.3,2.6,32,0.00,CLR,,0.00,619.0,WeatherDisplay:10.37,2013-06-18 22:59:00,
2013-06-18 18:04:00,75.2,43.3,30.06,SSE,165,2.3,2.6,32,0.00,CLR,,0.00,619.0,WeatherDisplay:10.37,2013-06-18 23:04:00,
2013-06-18 18:09:00,75.2,43.3,30.06,SSE,165,2.3,2.6,32,0.00,CLR,,0.00,619.0,WeatherDisplay:10.37,2013-06-18 23:09:00,
2013-06-18 18:14:00,75.2,43.3,30.06,SSE,165,2.3,2.6,32,0.00,CLR,,0.00,619.0,WeatherDisplay:10.37,2013-06-18 23:14:00,
2013-06-18 18:19:00,75.2,43.3,30.06,SSE,165,2.3,2.6,32,0.00,CLR,,0.00,619.0,WeatherDisplay:10.37,2013-06-18 23:19:00,
2013-06-18 18:24:00,70.9,44.7,30.06,SW,235,3.5,3.5,39,0.00,CLR,,0.00,40.0,WeatherDisplay:10.37,2013-06-18 23:24:00,
2013-06-18 18:29:00,70.5,41.5,30.06,WSW,242,0.0,0.0,35,0.00,CLR,,0.00,39.0,WeatherDisplay:10.37,2013-06-18 23:29:00,
2013-06-18 18:34:00,70.4,45.6,30.06,WSW,242,0.0,0.0,41,0.00,CLR,,0.00,37.0,WeatherDisplay:10.37,2013-06-18 23:34:00,
2013-06-18 18:39:00,70.5,41.5,30.06,WSW,242,0.0,0.0,35,0.00,CLR,,0.00,39.0,WeatherDisplay:10.37,2013-06-18 23:39:00,
2013-06-18 18:44:00,69.5,47.8,30.05,SW,227,2.3,2.3,46,0.00,CLR,,0.00,35.0,WeatherDisplay:10.37,2013-06-18 23:44:00,
2013-06-18 18:49:00,70.5,41.5,30.06,WSW,242,0.0,0.0,35,0.00,CLR,,0.00,39.0,WeatherDisplay:10.37,2013-06-18 23:49:00,
2013-06-18 18:54:00,68.7,46.5,30.06,SSE,159,2.0,2.0,45,0.00,CLR,,0.00,33.0,WeatherDisplay:10.37,2013-06-18 23:54:00,
2013-06-18 18:59:00,70.5,41.5,30.06,WSW,242,0.0,0.0,35,0.00,CLR,,0.00,39.0,WeatherDisplay:10.37,2013-06-18 23:59:00,
2013-06-18 19:04:00,68.4,51.1,30.06,South,171,1.1,0.0,54,0.00,CLR,,0.00,32.0,WeatherDisplay:10.37,2013-06-19 00:04:00,
2013-06-18 19:09:00,70.5,41.5,30.06,WSW,242,0.0,0.0,35,0.00,CLR,,0.00,39.0,WeatherDisplay:10.37,2013-06-19 00:09:00,
2013-06-18 19:15:00,70.5,41.5,30.06,WSW,242,0.0,0.0,35,0.00,CLR,,0.00,39.0,WeatherDisplay:10.37,2013-06-19 00:15:00,
2013-06-18 19:20:00,67.6,47.8,30.06,SSE,159,0.0,0.0,49,0.00,CLR,,0.00,28.0,WeatherDisplay:10.37,2013-06-19 00:20:00,
2013-06-18 19:25:00,70.5,41.5,30.06,WSW,242,0.0,0.0,35,0.00,CLR,,0.00,39.0,WeatherDisplay:10.37,2013-06-19 00:25:00,
2013-06-18 19:30:00,67.3,48.5,30.06,SSE,159,0.0,0.0,51,0.00,CLR,,0.00,26.0,WeatherDisplay:10.37,2013-06-19 00:30:00,
2013-06-18 19:35:00,67.3,48.5,30.06,SSE,159,0.0,0.0,51,0.00,CLR,,0.00,26.0,WeatherDisplay:10.37,2013-06-19 00:35:00,
2013-06-18 19:40:00,66.2,47.0,30.06,SSE,159,0.0,0.0,50,0.00,CLR,,0.00,23.0,WeatherDisplay:10.37,2013-06-19 00:40:00,
2013-06-18 19:45:00,65.9,46.2,30.06,SSE,159,0.0,0.0,49,0.00,CLR,,0.00,21.0,WeatherDisplay:10.37,2013-06-19 00:45:00,
2013-06-18 19:50:00,66.3,46.6,30.06,SSE,159,0.0,0.0,49,0.00,CLR,,0.00,23.0,WeatherDisplay:10.37,2013-06-19 00:50:00,
2013-06-18 19:55:00,65.3,48.7,30.06,SSE,159,0.0,0.0,55,0.00,CLR,,0.00,18.0,WeatherDisplay:10.37,2013-06-19 00:55:00,
2013-06-18 20:00:00,66.3,46.6,30.06,SSE,159,0.0,0.0,49,0.00,CLR,,0.00,23.0,WeatherDisplay:10.37,2013-06-19 01:00:00,
2013-06-18 20:05:00,64.6,48.5,30.06,SSE,159,0.0,0.0,56,0.00,CLR,,0.00,14.0,WeatherDisplay:10.37,2013-06-19 01:05:00,
2013-06-18 20:10:00,66.3,46.6,30.06,SSE,159,0.0,0.0,49,0.00,CLR,,0.00,23.0,WeatherDisplay:10.37,2013-06-19 01:10:00,
2013-06-18 20:15:00,66.3,46.6,30.06,SSE,159,0.0,0.0,49,0.00,CLR,,0.00,23.0,WeatherDisplay:10.37,2013-06-19 01:15:00,
2013-06-18 20:20:00,66.3,46.6,30.06,SSE,159,0.0,0.0,49,0.00,CLR,,0.00,23.0,WeatherDisplay:10.37,2013-06-19 01:20:00,
2013-06-18 20:25:00,66.3,46.6,30.06,SSE,159,0.0,0.0,49,0.00,CLR,,0.00,23.0,WeatherDisplay:10.37,2013-06-19 01:25:00,
2013-06-18 20:30:00,66.3,46.6,30.06,SSE,159,0.0,0.0,49,0.00,CLR,,0.00,23.0,WeatherDisplay:10.37,2013-06-19 01:30:00,
2013-06-18 20:35:00,62.1,49.4,30.06,SSE,159,0.0,0.0,63,0.00,CLR,,0.00,5.0,WeatherDisplay:10.37,2013-06-19 01:35:00,
2013-06-18 20:40:00,61.6,49.7,30.06,SSE,159,0.0,0.0,65,0.00,CLR,,0.00,0.0,WeatherDisplay:10.37,2013-06-19 01:40:00,
2013-06-18 20:45:00,61.1,49.7,30.06,SSE,159,0.0,0.0,66,0.00,CLR,,0.00,0.0,WeatherDisplay:10.37,2013-06-19 01:45:00,
2013-06-18 20:50:00,61.7,49.0,30.06,SSE,159,0.0,0.0,63,0.00,CLR,,0.00,0.0,WeatherDisplay:10.37,2013-06-19 01:50:00,
2013-06-18 20:55:00,60.3,51.2,30.06,SSE,159,0.0,0.0,72,0.00,CLR,,0.00,0.0,WeatherDisplay:10.37,2013-06-19 01:55:00,
2013-06-18 21:00:00,61.7,49.0,30.06,SSE,159,0.0,0.0,63,0.00,CLR,,0.00,0.0,WeatherDisplay:10.37,2013-06-19 02:00:00,
2013-06-18 21:05:00,59.4,51.1,30.06,SSE,159,0.0,0.0,74,0.00,CLR,,0.00,0.0,WeatherDisplay:10.37,2013-06-19 02:05:00,
2013-06-18 21:10:00,61.7,49.0,30.06,SSE,159,0.0,0.0,63,0.00,CLR,,0.00,0.0,WeatherDisplay:10.37,2013-06-19 02:10:00,
2013-06-18 21:15:00,58.5,49.5,30.06,SSE,159,0.0,0.0,72,0.00,CLR,,0.00,0.0,WeatherDisplay:10.37,2013-06-19 02:15:00,
2013-06-18 21:20:00,61.7,49.0,30.06,SSE,159,0.0,0.0,63,0.00,CLR,,0.00,0.0,WeatherDisplay:10.37,2013-06-19 02:20:00,
2013-06-18 21:25:00,57.1,48.9,30.06,SSE,159,1.0,1.0,74,0.00,CLR,,0.00,0.0,WeatherDisplay:10.37,2013-06-19 02:25:00,
2013-06-18 21:30:00,56.4,49.3,30.06,SSE,159,0.0,0.0,77,0.00,CLR,,0.00,0.0,WeatherDisplay:10.37,2013-06-19 02:30:00,
2013-06-18 21:35:00,56.1,49.0,30.06,SSE,159,0.0,0.0,77,0.00,CLR,,0.00,0.0,WeatherDisplay:10.37,2013-06-19 02:35:00,
2013-06-18 21:40:00,61.7,49.0,30.06,SSE,159,0.0,0.0,63,0.00,CLR,,0.00,0.0,WeatherDisplay:10.37,2013-06-19 02:40:00,
2013-06-18 21:45:00,55.3,49.6,30.07,SSE,159,0.0,0.0,81,0.00,CLR,,0.00,0.0,WeatherDisplay:10.37,2013-06-19 02:45:00,
2013-06-18 21:50:00,54.9,49.2,30.07,SSE,159,0.0,0.0,81,0.00,CLR,,0.00,0.0,WeatherDisplay:10.37,2013-06-19 02:50:00,
2013-06-18 21:55:00,54.5,49.1,30.07,SSE,159,0.0,0.0,82,0.00,CLR,,0.00,0.0,WeatherDisplay:10.37,2013-06-19 02:55:00,
2013-06-18 22:00:00,61.7,49.0,30.06,SSE,159,0.0,0.0,63,0.00,CLR,,0.00,0.0,WeatherDisplay:10.37,2013-06-19 03:00:00,
2013-06-18 22:05:00,53.7,49.0,30.07,SSE,159,0.0,0.0,84,0.00,CLR,,0.00,0.0,WeatherDisplay:10.37,2013-06-19 03:05:00,
2013-06-18 22:10:00,61.7,49.0,30.06,SSE,159,0.0,0.0,63,0.00,CLR,,0.00,0.0,WeatherDisplay:10.37,2013-06-19 03:10:00,
2013-06-18 22:15:00,61.7,49.0,30.06,SSE,159,0.0,0.0,63,0.00,CLR,,0.00,0.0,WeatherDisplay:10.37,2013-06-19 03:15:00,
2013-06-18 22:20:00,52.8,48.4,30.07,SSE,159,0.0,0.0,85,0.00,CLR,,0.00,0.0,WeatherDisplay:10.37,2013-06-19 03:20:00,
2013-06-18 22:25:00,52.5,48.1,30.08,SSE,159,0.0,0.0,85,0.00,CLR,,0.00,0.0,WeatherDisplay:10.37,2013-06-19 03:25:00,
2013-06-18 22:30:00,52.1,48.0,30.07,SSE,159,0.0,0.0,86,0.00,CLR,,0.00,0.0,WeatherDisplay:10.37,2013-06-19 03:30:00,
2013-06-18 22:35:00,61.7,49.0,30.06,SSE,159,0.0,0.0,63,0.00,CLR,,0.00,0.0,WeatherDisplay:10.37,2013-06-19 03:35:00,
2013-06-18 22:40:00,51.6,47.9,30.07,SSE,159,0.0,0.0,87,0.00,CLR,,0.00,0.0,WeatherDisplay:10.37,2013-06-19 03:40:00,
2013-06-18 22:45:00,51.3,47.6,30.07,SSE,159,0.0,0.0,87,0.00,CLR,,0.00,0.0,WeatherDisplay:10.37,2013-06-19 03:45:00,
2013-06-18 22:50:00,61.7,49.0,30.06,SSE,159,0.0,0.0,63,0.00,CLR,,0.00,0.0,WeatherDisplay:10.37,2013-06-19 03:50:00,
2013-06-18 22:55:00,50.8,47.4,30.07,SSE,159,0.0,0.0,88,0.00,CLR,,0.00,0.0,WeatherDisplay:10.37,2013-06-19 03:55:00,
2013-06-18 23:00:00,61.7,49.0,30.06,SSE,159,0.0,0.0,63,0.00,CLR,,0.00,0.0,WeatherDisplay:10.37,2013-06-19 04:00:00,
2013-06-18 23:01:00,50.4,47.0,30.07,SSE,159,0.0,0.0,88,0.00,CLR,,0.00,0.0,WeatherDisplay:10.37,2013-06-19 04:01:00,
2013-06-18 23:06:00,61.7,49.0,30.06,SSE,159,0.0,0.0,63,0.00,CLR,,0.00,0.0,WeatherDisplay:10.37,2013-06-19 04:06:00,
2013-06-18 23:11:00,61.7,49.0,30.06,SSE,159,0.0,0.0,63,0.00,CLR,,0.00,0.0,WeatherDisplay:10.37,2013-06-19 04:11:00,
2013-06-18 23:16:00,49.6,46.5,30.07,SSE,159,0.0,0.0,89,0.00,CLR,,0.00,0.0,WeatherDisplay:10.37,2013-06-19 04:16:00,
2013-06-18 23:21:00,49.4,46.3,30.07,SSE,159,0.0,0.0,89,0.00,CLR,,0.00,0.0,WeatherDisplay:10.37,2013-06-19 04:21:00,
2013-06-18 23:26:00,49.2,46.1,30.07,SSE,159,0.0,0.0,89,0.00,CLR,,0.00,0.0,WeatherDisplay:10.37,2013-06-19 04:26:00,
2013-06-18 23:31:00,48.9,46.1,30.07,SSE,159,0.0,0.0,90,0.00,CLR,,0.00,0.0,WeatherDisplay:10.37,2013-06-19 04:31:00,
2013-06-18 23:36:00,61.7,49.0,30.06,SSE,159,0.0,0.0,63,0.00,CLR,,0.00,0.0,WeatherDisplay:10.37,2013-06-19 04:36:00,
2013-06-18 23:41:00,61.7,49.0,30.06,SSE,159,0.0,0.0,63,0.00,CLR,,0.00,0.0,WeatherDisplay:10.37,2013-06-19 04:41:00,
2013-06-18 23:46:00,61.7,49.0,30.06,SSE,159,0.0,0.0,63,0.00,CLR,,0.00,0.0,WeatherDisplay:10.37,2013-06-19 04:46:00,
2013-06-18 23:51:00,48.3,45.5,30.07,SSE,159,0.0,0.0,90,0.00,CLR,,0.00,0.0,WeatherDisplay:10.37,2013-06-19 04:51:00,
2013-06-18 23:56:00,48.3,45.5,30.07,SSE,159,0.0,0.0,90,0.00,CLR,,0.00,0.0,WeatherDisplay:10.37,2013-06-19 04:56:00,